Volver al catálogo

STARLINK-4209

ActivoComunicacionesVLEO
NORAD 52855·PAYLOAD·🇺🇸 United States

Lanzado Jun 17, 2022 desde Cape Canaveral Space Force Station

Loading…

Próximos Pases (próximas 24 horas)

TLE

ActualizadoSource: CelesTrak SupGP

Época: Sep 15, 2026, 01:53 UTC

1 52855C 22062AB  26258.07895833 -.00033205  00000+0 -10677-2 0  2588
2 52855  53.1573 242.0481 0001373  94.2500 338.1216 15.31720444    12

Sigue STARLINK-4209 en tiempo real con AllMySat

Download on the App Store